Regional Weather Roundup
Issued by NWS

Home | Current Version | Previous Version | Graphics & Text | Print | Product List | Glossary Off
Versions: 1 2 3 4 5 6 7 8 9 10 11 12 13 14 15 16 17 18 19 20 21 22 23 24 25 26 27 28 29 30 31 32 33 34 35 36 37 38 39 40 41 42 43 44 45 46 47 48 49 50

000
ASUS44 KMEG 301710
RWRTN
TENNESSEE HOURLY STATE WEATHER ROUNDUP
NATIONAL WEATHER SERVICE MEMPHIS TN
1100 AM CST FRI JAN 30 2015

TNZ002-004-019-021-049-052-054-088>092-301800-
WEST TENNESSEE

CITY           SKY/WX    TMP DP  RH WIND       PRES   REMARKS
MEMPHIS INTL   MOSUNNY   44  25  47 NE12      30.52R
NWS MEMPHIS      N/A     42 N/A N/A MISG        N/A
JACKSON        SUNNY     42  24  49 N7        30.52S
DYERSBURG      SUNNY     41  18  38 E9        30.55F
UNION CITY     SUNNY     37  23  56 VRB7      30.53S WCI  32
PARIS          SUNNY     37  21  52 N10       30.52S WCI  30
LEXINGTON      SUNNY     39  23  52 NE9       30.49F WCI  33
SAVANNAH       SUNNY     41  25  52 N9        30.50F
$$

TNZ008-025-027-028-033-062-065-066-301800-
NORTH MIDDLE TENNESSEE

CITY           SKY/WX    TMP DP  RH WIND       PRES   REMARKS
NASHVILLE      MOSUNNY   42  21  43 N14G20    30.50R
CLARKSVILLE    PTSUNNY   37  23  56 N13       30.51S WCI  29
SMYRNA         MOSUNNY   41  22  47 N10G18    30.50S
COOKEVILLE     MOSUNNY   37  23  56 N12       30.43R WCI  30
CROSSVILLE     CLOUDY    36  21  54 NW10      30.38R WCI  28
$$

TNZ061-075-076-078-094-096-097-301800-
SOUTH MIDDLE TENNESSEE

CITY           SKY/WX    TMP DP  RH WIND       PRES   REMARKS
FAYETTEVILLE   MOSUNNY   37  21  52 MISG      30.45S
TULLAHOMA      MOSUNNY   37  21  52 N13       30.44F WCI  29
WINCHESTER     MOSUNNY   39  25  56 N12       30.44F WCI  32
MCMINNVILLE    PTSUNNY   39  25  56 NW13      30.44S WCI  32
COLUMBIA       MOSUNNY   37  25  60 N8        30.47S WCI  31
SHELBYVILLE    SUNNY     39  25  56 N13       30.47F WCI  32
$$

TNZ017-018-042-046-047-301800-
NORTHEAST TENNESSEE

CITY           SKY/WX    TMP DP  RH WIND       PRES   REMARKS
TRI CITIES     PTSUNNY   37  22  54 W16G22    30.29S WCI  28
ELIZABETHTON   LGT RAIN  32  19  59 NW10      30.27S WCI  24
$$

TNZ012-013-036-069-073-074-301800-
CENTRAL EAST TENNESSEE

CITY           SKY/WX    TMP DP  RH WIND       PRES   REMARKS
KNOXVILLE      PTSUNNY   39  22  50 N9        30.39R WCI  33
OAK RIDGE      MOSUNNY   39  20  46 NW9G17    30.41R WCI  33
GATLINBURG     CLOUDY    37  21  52 NW10      30.37S WCI  30
MORRISTOWN     MOSUNNY   37  21  52 NW15      30.35S WCI  28
$$

TNZ083-085-099-301800-
SOUTHEAST TENNESSEE

CITY           SKY/WX    TMP DP  RH WIND       PRES   REMARKS
CHATTANOOGA    MOSUNNY   42  24  49 NW13      30.42S
$$

SKY/WX REPORTED AS FAIR MEANS FEW OR NO CLOUDS BELOW
12 THOUSAND FEET.



USA.gov is the U.S. government's official web portal to all federal, state and local government web resources and services.